Mount Vernon, IL

7:17 PM CST on November 19, 2019 (GMT -0600)
Mount Vernon

Weather History for KMVN - October, 2019

Change the Weather History Date:

Sunday, October 13, 2019

  Actual Average Record
Temperature  
Mean Temperature 53 °F -  
Max Temperature 69 °F 66 °F 82 °F (2008)
Min Temperature 37 °F 43 °F 28 °F (2006)
Degree Days  
Heating Degree Days 12    
Growing Degree Days 3 (Base 50)    
Moisture  
Dew Point 39 °F    
Average Humidity 66    
Maximum Humidity 97    
Minimum Humidity 32    
Precipitation  
Precipitation 0.00 in - - ()
Sea Level Pressure  
Sea Level Pressure 30.00 in    
Wind  
Wind Speed 4 mph (SW)    
Max Wind Speed 14 mph    
Max Gust Speed 21 mph    
Visibility 10 miles    
Events      
Averages and records for this station are not official NWS values.
T = Trace of Precipitation, MM = Missing Value Source: NWS Daily Summary

Daily Weather History Graph

Daily Weather History Graph

Search for Another Location

Airport or City:

Astronomy

Oct. 13, 2019 Rise Set
Actual Time 7:02 AM CDT 6:20 PM CDT
Civil Twilight 6:35 AM CDT 6:47 PM CDT
Nautical Twilight 6:04 AM CDT 7:17 PM CDT
Astronomical Twilight 5:34 AM CDT 7:48 PM CDT
Moon 6:42 PM CDT (10/13) 6:37 AM CDT (10/13)
Length of Visible Light 12h 11m
Length of Day
11h 18m
Full, 100% of the Moon is Illuminated
Oct 13
Full
Oct 13
Full
Oct 21
Last Quarter
Oct 27
New
Nov 4
First Quarter

Hourly Weather History & Observations

Time (CDT) Temp. Windchill Dew Point Humidity Pressure Visibility Wind Dir Wind Speed Gust Speed Precip Events Conditions
12:56 AM 43.0 °F - 36.0 °F 76% 30.04 in 10.0 mi Calm Calm - N/A   Clear
1:56 AM 37.9 °F - 37.0 °F 97% 30.03 in 10.0 mi Calm Calm - N/A   Clear
2:56 AM 37.0 °F - 36.0 °F 96% 30.03 in 10.0 mi Calm Calm - N/A   Clear
3:56 AM 37.9 °F - 37.0 °F 97% 30.03 in 10.0 mi Calm Calm - N/A   Clear
4:56 AM 39.9 °F 36.7 °F 36.0 °F 86% 30.02 in 10.0 mi South 4.6 mph - N/A   Clear
5:56 AM 39.9 °F 37.8 °F 36.0 °F 86% 30.03 in 10.0 mi SSW 3.5 mph - N/A   Clear
6:56 AM 37.0 °F - 35.1 °F 93% 30.03 in 10.0 mi Calm Calm - N/A   Clear
7:56 AM 39.9 °F 37.8 °F 37.9 °F 93% 30.04 in 10.0 mi South 3.5 mph - N/A   Clear
8:56 AM 48.9 °F - 41.0 °F 74% 30.03 in 10.0 mi SW 8.1 mph - N/A   Clear
9:56 AM 55.9 °F - 37.9 °F 51% 30.03 in 10.0 mi SW 12.7 mph - N/A   Clear
10:56 AM 60.1 °F - 39.0 °F 46% 30.02 in 10.0 mi WSW 11.5 mph - N/A   Clear
11:56 AM 63.0 °F - 37.9 °F 40% 30.01 in 10.0 mi SW 10.4 mph - N/A   Clear
12:56 PM 64.9 °F - 39.0 °F 39% 29.99 in 10.0 mi WSW 11.5 mph 19.6 mph N/A   Clear
1:56 PM 66.9 °F - 39.0 °F 36% 29.98 in 10.0 mi WSW 12.7 mph 19.6 mph N/A   Clear
2:56 PM 69.1 °F - 37.9 °F 32% 29.96 in 10.0 mi SW 11.5 mph 20.7 mph N/A   Clear
3:56 PM 69.1 °F - 39.0 °F 33% 29.96 in 10.0 mi SSW 13.8 mph - N/A   Clear
4:56 PM 68.0 °F - 39.9 °F 36% 29.95 in 10.0 mi SW 10.4 mph - N/A   Clear
5:56 PM 64.0 °F - 42.1 °F 45% 29.94 in 10.0 mi SSW 9.2 mph - N/A   Clear
6:56 PM 57.9 °F - 42.1 °F 56% 29.96 in 10.0 mi SSW 3.5 mph - N/A   Clear
7:56 PM 55.0 °F - 41.0 °F 59% 29.97 in 10.0 mi SSW 3.5 mph - N/A   Clear
8:56 PM 52.0 °F - 42.1 °F 69% 29.99 in 10.0 mi Calm Calm - N/A   Clear
9:56 PM 46.9 °F - 43.0 °F 86% 30.00 in 10.0 mi Calm Calm - N/A   Clear
10:56 PM 48.9 °F - 42.1 °F 77% 30.02 in 10.0 mi West 4.6 mph - N/A   Clear
11:56 PM 46.0 °F - 42.1 °F 86% 30.02 in 10.0 mi Calm Calm - N/A   Clear